Location: Augirein
(42.9320°N, 0.9181°E)
Time: 17:55:18
(UTC+00:00)

ISS - Visible Passes

Search period start: 24 September 2021 00:00
Search period end: 04 October 2021 00:00
Orbit: 419 x 423 km, 51.6° (Epoch: 24 September)

Date Brightness Start Highest point End Pass type
(mag) Time Alt. Az. Time Alt. Az. Time Alt. Az.
24 Sep -1.5 19:00:29 10° WNW 19:03:02 20° N 19:05:32 10° NE visible
24 Sep -0.5 20:38:01 10° NW 20:38:31 13° NW 20:38:31 13° NW visible
25 Sep -1.7 18:13:12 10° WNW 18:15:55 22° NNW 18:18:39 10° NE visible
25 Sep -1.5 19:51:04 10° NW 19:53:20 19° N 19:53:20 19° N visible
26 Sep -1.5 19:04:02 10° NW 19:06:29 18° N 19:08:10 14° NE visible
26 Sep -0.3 20:40:55 10° NW 20:41:09 11° NW 20:41:09 11° NW visible
27 Sep -1.6 18:16:54 10° NW 18:19:21 18° N 18:21:48 10° NE visible
27 Sep -1.6 19:54:04 10° NW 19:55:58 22° NNW 19:55:58 22° NNW visible
28 Sep -2.0 19:07:10 10° NW 19:09:54 22° NNE 19:10:48 20° NE visible
29 Sep -1.8 18:20:14 10° NW 18:22:47 20° N 18:25:20 10° ENE visible
29 Sep -1.7 19:56:55 10° NW 19:58:38 26° NW 19:58:38 26° NW visible
30 Sep -2.8 19:10:03 10° NW 19:13:11 35° NNE 19:13:31 34° NE visible
01 Oct -2.4 18:23:10 10° NW 18:26:07 27° NNE 18:28:27 14° ENE visible
01 Oct -1.5 19:59:50 10° WNW 20:01:27 26° WNW 20:01:27 26° WNW visible
02 Oct -3.9 19:12:53 10° NW 19:16:16 79° NNE 19:16:27 75° ENE visible
03 Oct -3.4 18:25:58 10° NW 18:29:17 51° NNE 18:31:31 18° E visible
03 Oct -1.0 20:03:13 10° W 20:04:31 17° W 20:04:31 17° W visible
